Theta_e
329 327 323 321 319 321 320 319 321 321 319 319 319 317 316 314 312 310 309 307 304 307 311 314 317 320 326 330 327 324 320 320 319 319 320 320 320 320 320 320 320 320 320
321 319 317 318 318 317 316 317 317 316 315 315 317 317 316 315 315 313 312 312 307 305 307 310 313 316 320 324 330 329 326 322 320 317 318 318 318 318 318 318 317 317 317
316 314 313 313 314 315 315 316 315 316 314 313 315 315 316 316 314 314 314 313 312 310 304 307 310 313 316 320 323 329 331 326 322 319 317 318 318 317 317 317 316 316 316
308 309 308 308 310 308 309 311 311 312 312 311 311 312 313 314 315 314 313 312 312 310 311 305 306 308 310 312 316 320 327 329 328 322 319 317 318 318 317 317 316 316 316
304 303 304 305 307 306 306 309 310 310 308 306 305 308 311 311 312 310 310 309 308 307 307 309 306 305 307 309 312 315 319 325 327 327 323 320 319 319 318 317 317 316 316
301 301 300 301 301 300 299 300 304 304 302 300 302 305 308 310 308 308 308 306 307 305 305 306 306 305 307 307 310 312 313 317 322 325 327 324 322 320 319 318 317 317 317
296 297 296 296 296 295 295 295 296 297 296 299 299 300 309 306 305 306 306 306 304 305 306 305 305 305 305 307 308 310 312 313 314 318 322 326 325 323 321 320 319 318 318
293 293 294 294 294 293 293 293 293 293 294 294 292 297 297 302 301 299 305 302 305 304 303 302 304 303 304 305 305 308 309 310 310 311 312 316 322 325 324 323 320 320 319
292 292 292 292 292 292 290 291 291 290 290 292 293 290 288 289 290 302 297 302 298 300 296 300 297 300 302 302 304 305 306 305 306 309 310 311 313 320 324 326 323 322 320
290 290 290 290 290 290 289 289 289 290 289 288 290 289 291 290 285 286 294 294 295 293 294 295 297 294 295 299 301 302 303 303 303 305 306 308 310 311 316 322 324 324 323
289 289 289 289 288 288 288 288 288 287 288 287 287 287 287 287 288 286 283 286 289 291 292 293 293 293 295 295 299 300 302 301 302 303 304 305 306 308 310 312 318 322 323
288 288 288 288 288 287 286 287 287 287 286 286 287 286 285 283 283 284 282 283 284 286 289 290 291 291 293 296 296 297 299 300 301 301 300 302 303 305 307 309 311 313 318
286 286 287 287 286 286 286 286 287 286 286 285 285 285 285 285 285 284 283 282 282 284 286 288 290 291 291 295 293 292 296 298 299 298 297 299 301 302 304 306 308 309 311
285 286 286 286 285 285 285 285 285 285 285 285 284 285 285 285 285 285 283 281 279 280 283 284 287 288 290 291 293 293 293 297 295 295 296 296 297 298 301 303 305 306 307
284 284 284 283 283 283 283 282 283 283 283 283 283 283 283 283 284 284 284 283 280 276 277 282 283 287 288 288 289 289 289 291 292 293 294 295 295 297 297 299 302 304 306
283 283 282 282 282 281 281 281 281 281 280 281 281 280 280 281 281 281 281 282 282 280 276 281 282 285 286 286 287 287 287 289 290 292 292 293 294 295 296 297 298 300 303
281 281 280 280 280 279 280 279 279 279 278 278 279 278 278 279 278 278 279 279 278 279 276 279 282 283 283 283 284 285 286 286 287 290 290 291 292 293 294 295 296 297 298
280 279 279 279 278 278 278 277 276 277 276 276 276 276 277 277 276 277 277 277 277 277 275 273 276 277 278 280 281 282 283 285 285 288 289 290 291 291 293 293 294 295 296
279 279 278 277 276 276 276 276 275 275 275 276 276 276 276 276 275 276 275 275 275 275 275 274 273 275 276 277 278 280 283 283 285 287 288 288 289 290 291 292 292 294 294
277 276 276 276 275 275 275 274 274 274 275 275 276 276 276 275 275 274 274 274 274 273 273 273 273 273 274 276 276 276 278 280 280 284 286 287 287 288 290 291 292 291 292
275 275 274 274 274 274 274 274 274 274 274 274 275 275 275 275 276 275 274 274 273 272 272 271 271 271 272 273 272 274 274 275 276 279 279 281 284 285 285 288 289 290 291
274 274 273 273 272 273 274 275 275 274 273 273 273 274 274 274 274 275 276 276 275 272 271 271 270 270 271 272 274 273 273 272 270 277 277 277 281 280 281 283 286 288 289
272 272 272 272 271 271 274 275 275 273 272 272 272 272 272 273 273 272 274 275 275 275 276 273 271 271 271 272 273 272 272 272 272 275 275 273 277 276 280 282 284 285 286
271 271 271 270 270 270 273 274 274 272 272 272 272 272 271 272 272 273 272 272 273 273 274 274 273 273 274 275 275 275 274 274 275 276 277 272 276 276 278 280 284 285 286
270 269 270 269 268 268 271 272 273 271 271 271 272 272 272 272 274 276 274 273 273 274 277 278 279 280 280 281 280 277 274 273 271 273 276 274 274 274 276 277 279 283 284
269 269 269 268 267 267 269 271 272 272 270 271 272 273 275 275 276 277 274 273 272 273 274 275 276 277 278 278 279 277 275 272 271 270 274 273 273 273 271 275 276 278 279
Wind_Speed
5 6 6 5 4 3 4 4 2 4 5 4 4 5 5 5 5 3 3 2 4 8 9 10 10 10 12 10 8 4 3 0 4 5 6 6 6 7 7 6 7 7 7
6 6 5 5 4 5 4 4 5 4 3 3 5 5 5 5 5 4 3 3 1 5 8 9 9 10 11 12 14 10 7 6 4 2 3 4 5 6 7 6 6 7 7
10 9 6 6 7 6 5 4 3 4 4 4 5 5 4 5 5 6 5 4 4 3 1 7 9 10 11 12 13 14 13 8 6 4 2 4 5 6 6 5 6 7 7
11 9 7 7 7 5 4 4 5 5 5 6 7 7 7 6 5 5 4 4 4 4 3 3 7 10 11 12 12 12 14 13 10 9 6 4 5 7 7 7 6 7 8
10 8 7 4 4 6 7 7 7 7 7 7 8 7 6 5 6 5 5 5 5 5 4 5 4 8 7 12 13 14 13 15 15 11 11 9 6 9 9 9 10 9 9
10 8 8 9 9 8 8 8 9 9 9 9 9 7 6 4 4 3 5 5 4 6 5 5 4 5 7 11 13 14 14 14 15 17 14 14 12 9 11 11 11 11 11
13 11 8 9 9 10 11 11 9 9 8 11 6 6 3 5 3 6 3 5 6 5 6 7 5 5 6 14 12 13 16 16 16 17 18 16 17 15 15 13 13 13 12
14 12 11 10 11 8 11 11 10 7 6 9 7 6 5 1 7 7 2 3 5 6 8 9 9 9 7 6 8 18 15 15 16 17 18 19 20 18 19 16 14 14 15
14 12 12 10 10 9 8 9 10 11 7 7 9 6 5 5 11 1 7 3 9 4 8 6 10 8 9 8 9 10 15 17 18 19 19 19 20 20 19 20 18 17 16
14 13 12 11 10 7 9 8 9 8 7 7 4 7 5 7 5 7 3 10 8 8 8 6 6 9 11 6 9 9 9 14 17 19 20 20 20 20 21 22 21 20 20
12 12 11 11 10 7 9 10 9 10 7 6 6 6 6 6 8 8 13 8 10 8 8 7 8 9 7 10 6 7 11 17 17 17 18 19 20 20 20 21 23 25 24
8 11 10 9 9 8 8 7 8 9 8 7 6 6 6 6 8 7 11 12 14 11 10 9 8 8 8 6 9 11 15 17 15 14 17 19 20 21 21 22 22 23 26
6 8 8 8 7 8 9 8 7 8 8 8 8 7 6 7 7 8 10 12 13 10 10 10 7 6 8 5 8 13 9 15 16 19 22 21 21 22 22 23 23 23 24
5 6 7 7 8 10 9 9 7 6 7 6 9 7 7 7 7 7 9 11 14 12 11 14 11 10 8 8 9 12 11 13 20 25 25 25 24 24 24 23 24 24 24
5 7 9 8 9 9 9 9 6 7 7 7 8 8 8 7 8 8 8 8 10 15 14 10 11 9 10 11 12 13 14 19 25 27 27 27 28 28 26 25 25 25 26
8 8 8 8 8 9 9 9 7 7 8 7 7 9 9 7 8 8 9 9 9 12 18 10 10 12 11 12 15 15 16 21 23 25 27 27 27 28 29 27 27 27 26
7 7 6 6 7 8 8 8 9 9 9 10 9 10 10 11 8 8 8 8 10 10 14 17 12 12 15 15 15 15 15 14 13 23 26 27 28 28 29 30 29 28 28
4 4 4 6 7 7 8 9 10 10 11 11 11 12 12 10 12 11 8 11 10 11 11 20 16 12 14 15 17 17 14 14 14 20 28 30 29 31 30 30 31 29 28
2 3 4 6 7 8 9 10 10 11 11 12 12 13 13 13 12 10 11 11 10 10 10 12 18 12 12 12 14 14 13 14 13 22 26 28 30 30 30 30 30 29 29
2 4 5 6 7 8 9 9 10 12 12 12 13 13 13 13 13 13 12 13 12 12 12 12 13 15 12 12 11 13 11 10 11 13 18 20 25 27 32 31 27 25 26
3 4 6 6 7 7 6 10 11 12 13 14 13 14 13 14 21 20 13 13 13 12 12 13 14 14 12 11 12 12 13 13 13 12 14 12 12 8 9 17 19 23 27
3 4 5 6 8 6 12 15 14 13 14 14 13 13 13 15 15 23 24 26 22 15 14 12 13 15 17 14 12 12 13 12 16 9 13 14 12 12 10 11 23 27 25
3 4 6 7 8 9 14 16 17 12 13 12 14 14 13 11 14 14 19 24 22 25 26 19 18 16 18 15 15 15 15 14 15 12 12 15 12 16 12 13 25 30 33
2 4 6 7 8 8 14 16 18 13 11 13 12 13 14 14 14 17 16 16 17 17 18 15 18 19 18 17 17 16 17 18 15 14 11 16 12 14 13 11 23 27 28
3 4 6 6 8 8 14 15 15 10 10 12 13 13 14 16 22 27 18 17 17 16 21 31 34 35 35 34 28 15 12 13 15 15 10 12 13 13 13 13 12 26 30
4 5 6 6 8 8 12 14 14 8 10 10 11 12 19 21 27 28 19 17 18 17 17 17 16 19 22 20 30 20 13 15 14 19 10 11 12 11 15 12 12 9 9
Wind_Direction
83 73 69 59 54 47 33 37 21 45 58 11 353 354 354 349 341 333 322 91 353 336 337 339 337 330 321 316 304 264 186 157 26 356 349 358 351 346 341 355 351 343 339
65 66 70 63 63 52 41 30 14 22 26 4 329 333 328 324 323 312 314 314 231 321 328 329 332 329 326 323 317 314 252 208 185 173 321 336 342 342 336 339 342 340 340
65 64 48 55 46 27 24 30 11 17 358 342 318 304 305 298 305 309 315 315 326 227 272 335 338 333 329 327 320 316 318 239 222 211 196 303 312 319 319 314 323 324 323
51 53 56 42 44 46 25 27 20 3 1 354 341 328 315 313 310 301 310 321 330 329 333 62 352 333 326 323 319 314 302 308 253 224 206 211 275 293 298 297 290 301 302
63 69 60 47 42 42 27 18 26 17 15 358 331 322 319 331 344 352 337 345 358 346 345 351 349 304 325 327 319 315 312 307 308 251 249 220 217 272 276 282 286 283 286
55 56 58 53 47 44 37 26 31 20 26 353 326 329 326 29 17 41 5 24 27 21 25 13 347 356 343 335 327 320 315 308 303 303 282 247 228 230 269 274 274 275 278
60 58 56 50 55 47 38 32 18 20 22 357 355 343 304 70 68 9 29 19 34 18 5 5 2 350 341 336 340 338 327 317 311 311 317 307 266 252 227 246 267 267 265
54 53 50 44 41 44 41 34 31 17 27 14 2 309 353 219 28 322 19 45 1 12 6 347 347 349 338 328 321 322 322 327 327 319 312 304 298 300 257 245 234 253 267
64 61 59 55 47 40 36 28 20 26 11 24 32 8 344 349 336 16 339 1 349 355 342 358 338 330 339 329 320 322 322 321 322 320 315 311 305 299 297 261 250 245 245
54 52 53 50 47 48 46 26 21 15 4 13 5 17 354 318 325 313 341 327 303 345 326 333 312 332 305 306 312 303 312 321 322 320 317 314 309 304 299 293 286 261 253
59 49 43 41 42 41 32 28 22 16 9 356 358 349 318 319 279 295 307 312 305 306 322 301 314 296 316 303 298 301 322 314 312 314 317 316 312 306 299 291 286 282 275
57 50 52 50 37 28 30 25 18 16 360 351 348 335 335 326 314 308 301 302 302 308 307 297 297 303 292 299 288 302 301 302 304 310 317 315 312 309 304 295 286 280 278
52 46 46 44 36 27 17 16 13 9 359 343 336 329 318 308 308 301 297 299 300 307 304 298 284 301 295 299 289 281 298 305 294 303 309 303 301 300 299 297 292 284 277
48 46 46 44 41 22 15 4 358 2 345 324 320 320 311 303 302 298 298 304 298 295 293 296 311 302 302 304 315 297 282 276 297 298 295 294 293 291 289 287 286 285 280
72 36 33 31 22 30 3 355 347 353 328 320 316 317 312 309 306 301 295 291 292 300 290 292 291 300 309 307 303 309 303 297 294 292 290 287 286 286 284 281 279 277 277
49 39 18 11 12 15 357 344 339 332 318 322 316 318 310 308 305 300 295 291 286 286 290 293 287 295 295 298 299 299 295 297 293 289 288 284 280 281 283 281 278 275 272
42 36 10 349 358 2 345 337 329 320 321 316 314 311 311 309 301 300 302 297 291 291 289 296 300 303 298 292 288 291 289 287 286 288 289 287 286 281 279 281 280 277 274
41 34 346 342 356 351 337 330 325 324 320 317 315 312 307 309 307 304 299 294 293 296 292 293 297 302 297 299 303 297 290 286 285 287 289 287 287 285 280 276 276 277 278
34 18 352 352 349 340 335 328 323 317 318 313 311 309 306 308 303 301 300 299 299 299 297 291 294 297 294 297 297 288 293 284 284 287 287 285 283 282 276 272 274 276 274
16 3 355 348 342 335 325 317 321 317 313 307 304 301 300 300 300 302 303 301 297 294 290 285 288 298 301 299 291 296 304 314 307 307 299 287 282 282 276 277 273 277 280
11 2 348 340 331 322 315 321 315 311 307 304 303 302 298 300 301 294 290 289 291 293 292 289 287 291 298 302 307 302 293 300 298 300 294 302 300 298 310 316 285 257 263
13 358 337 322 315 310 310 312 310 306 306 304 301 301 301 302 297 299 298 294 288 288 285 287 291 288 290 292 295 297 297 298 296 278 289 302 302 287 289 295 295 293 302
1 334 315 315 309 305 305 311 314 306 303 301 302 303 300 298 298 291 290 292 294 287 282 283 283 283 286 283 284 284 280 278 280 283 286 286 287 283 290 283 286 286 282
328 311 307 301 296 301 308 312 310 307 305 301 300 298 293 292 289 292 288 282 274 270 271 269 267 270 270 272 268 269 271 271 271 273 270 278 283 281 283 279 285 283 279
296 289 282 289 290 294 304 309 314 312 301 294 293 289 288 288 287 288 285 286 284 277 270 272 272 275 277 279 281 281 279 282 284 279 272 274 278 280 281 284 283 280 281
269 277 285 286 278 285 302 308 314 297 292 296 296 296 294 301 304 303 296 287 280 280 282 281 280 282 280 275 276 274 274 271 275 279 270 267 276 283 284 276 271 268 279